Weather History for KNYC - October, 2012

Change the Weather History Date:

Friday, October 5, 2012

  Actual Average Record
Temperature  
Mean Temperature 70 °F 60 °F  
Max Temperature 78 °F 68 °F 94 °F (1941)
Min Temperature 61 °F 54 °F 35 °F (1881)
Degree Days  
Heating Degree Days 0 6  
Month to date heating degree days 4 25  
Since 1 July heating degree days 26 70  
Cooling Degree Days 5 1  
Month to date cooling degree days 14 5  
Year to date cooling degree days 1276 1092  
Growing Degree Days 20 (Base 50)    
Moisture  
Dew Point 58 °F    
Average Humidity 68    
Maximum Humidity 93    
Minimum Humidity 42    
Precipitation  
Precipitation 0.00 in 0.15 in 1.99 in (1995)
Month to date precipitation 0.38 0.71  
Year to date precipitation 29.36 38.23  
Snow  
Snow 0.00 in 0.00 in 0.00 in (2002)
Month to date snowfall 0.0 0.0  
Since 1 July snowfall 0.0 0.0  
Snow Depth 0.00 in    
Sea Level Pressure  
Sea Level Pressure 30.01 in    
Wind  
Wind Speed 3 mph (West)    
Max Wind Speed 8 mph    
Max Gust Speed 15 mph    
Visibility 9 miles    
Events      
T = Trace of Precipitation, MM = Missing Value Source: NWS Daily Summary

Daily Weather History Graph

Daily Weather History Graph

Search for Another Location

Airport or City:

Trip Planner

Search our weather history database for the weather conditions in past years. The results will help you decide how hot, cold, wet, or windy it might be!

Date:

Astronomy

Oct. 05, 2012 Rise Set
Actual Time 6:57 AM EDT 6:30 PM EDT
Civil Twilight 6:29 AM EDT 6:57 PM EDT
Nautical Twilight 5:57 AM EDT 7:29 PM EDT
Astronomical Twilight 5:25 AM EDT 8:01 PM EDT
Moon 9:50 PM EDT (10/5) 12:04 PM EDT (10/5)
Length of Visible Light 12h 28m
Length of Day
11h 33m
Waning Gibbous, 74% of the Moon is Illuminated
Oct 5
Waning Gibbous
Oct 8
Last Quarter
Oct 15
New
Oct 21
First Quarter
Oct 29
Full

Hourly Weather History & Observations

Time (EDT) Temp. Dew Point Humidity Pressure Visibility Wind Dir Wind Speed Gust Speed Precip Events Conditions
12:51 AM 66.0 °F 63.0 °F 90% 30.05 in 8.0 mi Calm Calm - N/A   Clear
1:51 AM 64.9 °F 63.0 °F 93% 30.06 in 8.0 mi Variable 4.6 mph - N/A   Clear
2:51 AM 64.0 °F 62.1 °F 93% 30.05 in 7.0 mi WNW 3.5 mph - N/A   Clear
3:51 AM 64.0 °F 62.1 °F 93% 30.05 in 6.0 mi Calm Calm - N/A   Clear
4:51 AM 63.0 °F 61.0 °F 93% 30.05 in 6.0 mi West 3.5 mph - N/A   Clear
5:51 AM 63.0 °F 60.1 °F 90% 30.06 in 9.0 mi Variable 3.5 mph - N/A   Clear
6:51 AM 62.1 °F 57.9 °F 86% 30.07 in 9.0 mi West 4.6 mph - N/A   Clear
7:51 AM 62.1 °F 57.0 °F 84% 30.07 in 10.0 mi Calm Calm - N/A   Clear
8:51 AM 64.0 °F 57.0 °F 78% 30.07 in 10.0 mi West 5.8 mph - N/A   Clear
9:51 AM 66.0 °F 57.0 °F 73% 30.07 in 10.0 mi Variable 3.5 mph - N/A   Clear
10:51 AM 69.1 °F 57.0 °F 65% 30.07 in 10.0 mi Variable 4.6 mph - N/A   Clear
11:51 AM 73.0 °F 55.9 °F 55% 30.05 in 10.0 mi Calm Calm - N/A   Clear
12:51 PM 75.0 °F 54.0 °F 48% 30.03 in 10.0 mi WSW 3.5 mph - N/A   Clear
1:51 PM 78.1 °F 54.0 °F 43% 30.00 in 10.0 mi Variable 3.5 mph - N/A   Clear
2:51 PM 77.0 °F 54.0 °F 45% 29.97 in 10.0 mi Calm Calm - N/A   Clear
3:51 PM 75.9 °F 54.0 °F 46% 29.96 in 10.0 mi WSW 6.9 mph - N/A   Clear
4:51 PM 75.9 °F 55.9 °F 50% 29.96 in 10.0 mi West 4.6 mph - N/A   Clear
5:51 PM 73.9 °F 55.9 °F 53% 29.96 in 10.0 mi West 3.5 mph - N/A   Clear
6:51 PM 72.0 °F 55.9 °F 57% 29.96 in 10.0 mi Variable 3.5 mph - N/A   Clear
7:51 PM 70.0 °F 57.9 °F 65% 29.96 in 10.0 mi SSW 3.5 mph - N/A   Clear
8:51 PM 71.1 °F 57.0 °F 61% 29.96 in 10.0 mi Variable 3.5 mph - N/A   Clear
9:51 PM 70.0 °F 57.0 °F 63% 29.95 in 10.0 mi Variable 4.6 mph - N/A   Clear
10:51 PM 70.0 °F 55.9 °F 61% 29.94 in 10.0 mi Variable 3.5 mph - N/A   Clear
11:51 PM 70.0 °F 57.0 °F 63% 29.93 in 10.0 mi Variable 3.5 mph - N/A   Clear